Wind from 270

Air temperature 16.7° C
Dewpoint 5.9° C

Last reported at 2014-Apr-16 23:36 UTC.
Time now 2014-Apr-17 00:58 UTC

Location: N 34°48' E 135°40'.
View on Google Maps.

See reports from other nearby stations

Tides Stations Pressure Air Temp Water Temp Dewpoint Dewpoint depression Visibility Wind Speed Wind Dir Waves Ship positions

  
sailing weather and tide predictions

JA3VQW-13 Hirakata JP weather

date/time (UTC)wind fromknots sea level pressurealtimeterstation pressurevisibilityair tempwater tempwave heightnotes
2014-Apr-16 23:36 270 16.7
2014-Apr-16 23:06 225 15.6
2014-Apr-16 22:36 225 14.4
2014-Apr-16 22:06 225 13.3
2014-Apr-16 21:36 225 12.8
2014-Apr-16 21:06 180 12.2
2014-Apr-16 20:36 158 12.2
2014-Apr-16 20:06 135 12.8
2014-Apr-16 19:36 135 12.8
2014-Apr-16 19:06 135 13.3
2014-Apr-16 18:36 225 13.3
2014-Apr-16 18:06 225 13.9
2014-Apr-16 17:36 225 13.9
2014-Apr-16 17:06 135 14.4
2014-Apr-16 16:36 135 14.4
2014-Apr-16 16:06 135 15.0
2014-Apr-16 15:36 180 15.0
2014-Apr-16 15:06 180 15.6
2014-Apr-16 14:36 158 15.6
2014-Apr-16 14:19 135 15.6
2014-Apr-16 13:49 135 16.1
2014-Apr-16 13:19 180 16.1
2014-Apr-16 12:49 180 16.7
2014-Apr-16 12:19 135 17.2
2014-Apr-16 11:49 165 17.8
2014-Apr-16 11:19 138 18.3
2014-Apr-16 10:49 235 1 gusting 4 18.9
2014-Apr-16 10:19 162 19.4
2014-Apr-16 09:49 223 19.4
2014-Apr-16 09:19 194 20.0
2014-Apr-16 08:49 216 20.6
2014-Apr-16 08:19 163 21.1
2014-Apr-16 07:49 264 21.7
2014-Apr-16 07:19 216 22.2
2014-Apr-16 06:49 282 22.8
2014-Apr-16 06:19 217 22.8
2014-Apr-16 05:49 171 22.8
2014-Apr-16 05:19 135 23.3
2014-Apr-16 04:49 147 22.8
2014-Apr-16 04:19 237 22.2
2014-Apr-16 03:49 283 21.7
2014-Apr-16 03:19 252 21.1
2014-Apr-16 02:49 285 1 gusting 2 20.6
2014-Apr-16 02:19 281 20.6
2014-Apr-16 01:49 277 20.0
2014-Apr-16 01:19 269 19.4
2014-Apr-16 00:49 270 18.9
2014-Apr-16 00:19 270 17.8
2014-Apr-15 23:49 180 16.1
2014-Apr-15 23:19 270 15.0
2014-Apr-15 22:49 180 13.3
2014-Apr-15 22:19 158 12.8
2014-Apr-15 21:49 158 12.2
2014-Apr-15 21:19 158 11.7
2014-Apr-15 20:49 158 11.7
2014-Apr-15 20:19 068 11.7
2014-Apr-15 19:49 246 11.7
2014-Apr-15 19:19 270 11.7
2014-Apr-15 18:49 270 11.7
2014-Apr-15 18:19 270 12.2
2014-Apr-15 17:49 135 12.2
2014-Apr-15 17:19 135 12.8
2014-Apr-15 16:49 135 12.8
2014-Apr-15 16:19 135 12.8
2014-Apr-15 15:49 135 13.3
2014-Apr-15 15:19 112 13.9
2014-Apr-15 14:49 292 13.9
2014-Apr-15 14:19 292 13.9
2014-Apr-15 13:49 135 14.4
2014-Apr-15 13:19 135 14.4
2014-Apr-15 12:49 135 15.0
2014-Apr-15 12:19 292 15.6
2014-Apr-15 11:49 292 16.1
2014-Apr-15 11:19 135 16.7
2014-Apr-15 10:49 274 16.7
2014-Apr-15 10:19 200 17.2
2014-Apr-15 09:49 284 17.2
2014-Apr-15 09:19 272 18.3
2014-Apr-15 08:49 221 19.4
2014-Apr-15 08:19 341 21.1
2014-Apr-15 07:49 203 21.7
2014-Apr-15 07:19 130 1 gusting 1 21.7
2014-Apr-15 06:49 143 22.2
2014-Apr-15 06:19 158 22.2
2014-Apr-15 05:49 151 22.2
2014-Apr-15 05:19 196 22.2
2014-Apr-15 04:49 225 21.7
2014-Apr-15 04:19 283 0 gusting 5 21.1
2014-Apr-15 03:49 197 20.0
2014-Apr-15 03:19 225 0 gusting 1 19.4
2014-Apr-15 02:49 177 18.9
2014-Apr-15 02:19 092 1 gusting 2 18.3
2014-Apr-15 01:49 270 2 gusting 6 16.1
2014-Apr-15 01:19 287 15.0
2014-Apr-15 00:49 144 13.9
2014-Apr-15 00:19 183 12.8